TimeCDT,TemperatureF,Dew PointF,Humidity,Sea Level PressureIn,VisibilityMPH,Wind Direction,Wind SpeedMPH,Gust SpeedMPH,PrecipitationIn,Events,Conditions,WindDirDegrees,DateUTC
12:15 AM,62.6,51.8,68,29.97,10.0,NNW,4.6,-,N/A,,Scattered Clouds,330,2012-10-02 05:15:00
12:35 AM,62.6,51.8,68,29.97,10.0,NW,4.6,-,N/A,,Scattered Clouds,320,2012-10-02 05:35:00
12:55 AM,64.4,51.8,64,29.97,10.0,NNW,8.1,-,N/A,,Clear,330,2012-10-02 05:55:00
1:15 AM,64.4,51.8,64,29.96,10.0,NNW,8.1,-,N/A,,Clear,330,2012-10-02 06:15:00
1:35 AM,64.4,51.8,64,29.97,10.0,NNW,11.5,-,N/A,,Clear,340,2012-10-02 06:35:00
1:55 AM,64.4,51.8,64,29.97,10.0,NNW,11.5,-,N/A,,Clear,340,2012-10-02 06:55:00
2:15 AM,62.6,51.8,68,29.97,10.0,NNW,9.2,-,N/A,,Clear,330,2012-10-02 07:15:00
2:35 AM,62.6,51.8,68,29.97,10.0,NNW,9.2,-,N/A,,Clear,330,2012-10-02 07:35:00
2:55 AM,62.6,51.8,68,29.97,10.0,NNW,10.4,-,N/A,,Clear,340,2012-10-02 07:55:00
3:15 AM,62.6,51.8,68,29.97,10.0,NNW,9.2,-,N/A,,Clear,330,2012-10-02 08:15:00
3:35 AM,60.8,51.8,72,29.98,10.0,NNW,5.8,-,N/A,,Clear,330,2012-10-02 08:35:00
3:55 AM,60.8,51.8,72,29.97,10.0,NNW,5.8,-,N/A,,Clear,330,2012-10-02 08:55:00
4:15 AM,60.8,51.8,72,29.98,10.0,NW,5.8,-,N/A,,Scattered Clouds,320,2012-10-02 09:15:00
4:35 AM,59.0,51.8,77,29.98,10.0,NNW,5.8,-,N/A,,Clear,330,2012-10-02 09:35:00
4:55 AM,59.0,51.8,77,29.99,10.0,NW,9.2,-,N/A,,Clear,320,2012-10-02 09:55:00
5:15 AM,59.0,51.8,77,29.99,10.0,NW,8.1,-,N/A,,Clear,320,2012-10-02 10:15:00
5:55 AM,59.0,51.8,77,30.00,10.0,NNW,9.2,-,N/A,,Clear,340,2012-10-02 10:55:00
6:15 AM,59.0,51.8,77,30.00,10.0,NNW,8.1,-,N/A,,Clear,340,2012-10-02 11:15:00
6:35 AM,59.0,51.8,77,30.01,10.0,NW,5.8,-,N/A,,Clear,320,2012-10-02 11:35:00
6:55 AM,57.2,51.8,82,30.01,10.0,NW,6.9,-,N/A,,Clear,320,2012-10-02 11:55:00
7:15 AM,57.2,51.8,82,30.01,10.0,NW,6.9,-,N/A,,Clear,320,2012-10-02 12:15:00
7:35 AM,55.4,51.8,88,30.01,10.0,NNW,8.1,-,N/A,,Clear,330,2012-10-02 12:35:00
7:55 AM,57.2,51.8,82,30.02,10.0,NW,8.1,-,N/A,,Clear,320,2012-10-02 12:55:00
8:15 AM,57.2,51.8,82,30.02,10.0,NW,8.1,-,N/A,,Clear,320,2012-10-02 13:15:00
8:35 AM,59.0,51.8,77,30.03,10.0,NW,6.9,-,N/A,,Clear,310,2012-10-02 13:35:00
8:55 AM,59.0,50.0,72,30.04,10.0,NW,10.4,-,N/A,,Clear,320,2012-10-02 13:55:00
9:15 AM,60.8,50.0,68,30.04,10.0,NW,12.7,17.3,N/A,,Clear,320,2012-10-02 14:15:00
9:35 AM,60.8,50.0,68,30.05,10.0,NW,8.1,-,N/A,,Clear,320,2012-10-02 14:35:00
9:55 AM,62.6,51.8,68,30.06,10.0,NNW,9.2,-,N/A,,Clear,330,2012-10-02 14:55:00
10:15 AM,62.6,50.0,63,30.06,10.0,NNW,10.4,-,N/A,,Clear,330,2012-10-02 15:15:00
10:35 AM,62.6,50.0,63,30.06,10.0,NW,12.7,18.4,N/A,,Clear,320,2012-10-02 15:35:00
10:55 AM,62.6,50.0,63,30.06,10.0,NNW,10.4,-,N/A,,Clear,330,2012-10-02 15:55:00
11:15 AM,66.2,50.0,56,30.06,10.0,NNW,12.7,20.7,N/A,,Clear,330,2012-10-02 16:15:00
11:35 AM,68.0,50.0,52,30.06,10.0,NNW,9.2,-,N/A,,Clear,340,2012-10-02 16:35:00
11:55 AM,68.0,50.0,52,30.05,10.0,NNW,9.2,-,N/A,,Clear,330,2012-10-02 16:55:00
12:15 PM,69.8,50.0,49,30.05,10.0,North,6.9,-,N/A,,Clear,360,2012-10-02 17:15:00
12:35 PM,69.8,50.0,49,30.05,10.0,NW,9.2,-,N/A,,Clear,320,2012-10-02 17:35:00
12:55 PM,71.6,50.0,46,30.04,10.0,NNW,8.1,-,N/A,,Clear,340,2012-10-02 17:55:00
1:15 PM,71.6,50.0,46,30.03,10.0,North,10.4,-,N/A,,Clear,350,2012-10-02 18:15:00
1:35 PM,73.4,51.8,47,30.02,10.0,NW,6.9,-,N/A,,Clear,310,2012-10-02 18:35:00
1:55 PM,73.4,50.0,44,30.02,10.0,NW,9.2,-,N/A,,Clear,320,2012-10-02 18:55:00
2:15 PM,73.4,50.0,44,30.00,10.0,NNW,5.8,9.2,N/A,,Clear,330,2012-10-02 19:15:00
2:35 PM,73.4,50.0,44,29.99,10.0,NW,8.1,-,N/A,,Clear,320,2012-10-02 19:35:00
2:55 PM,73.4,50.0,44,29.99,10.0,NNW,10.4,-,N/A,,Clear,330,2012-10-02 19:55:00
3:15 PM,75.2,50.0,41,29.98,10.0,NW,5.8,-,N/A,,Clear,310,2012-10-02 20:15:00
3:35 PM,75.2,48.2,38,29.98,10.0,NNW,9.2,-,N/A,,Clear,330,2012-10-02 20:35:00
3:55 PM,75.2,48.2,38,29.98,10.0,North,9.2,-,N/A,,Clear,10,2012-10-02 20:55:00
4:15 PM,75.2,48.2,38,29.98,10.0,NW,4.6,-,N/A,,Clear,320,2012-10-02 21:15:00
4:35 PM,75.2,48.2,38,29.97,10.0,NNE,4.6,-,N/A,,Clear,20,2012-10-02 21:35:00
4:55 PM,75.2,46.4,36,29.97,10.0,Calm,Calm,-,N/A,,Clear,0,2012-10-02 21:55:00
5:15 PM,75.2,50.0,41,29.97,10.0,Calm,Calm,-,N/A,,Scattered Clouds,0,2012-10-02 22:15:00
5:35 PM,75.2,48.2,38,29.97,10.0,North,8.1,-,N/A,,Scattered Clouds,350,2012-10-02 22:35:00
5:55 PM,75.2,46.4,36,29.97,10.0,North,6.9,-,N/A,,Scattered Clouds,360,2012-10-02 22:55:00
6:15 PM,73.4,46.4,38,29.97,10.0,NNW,4.6,-,N/A,,Clear,340,2012-10-02 23:15:00
6:35 PM,73.4,48.2,41,29.97,10.0,North,4.6,-,N/A,,Clear,360,2012-10-02 23:35:00
6:55 PM,73.4,50.0,44,29.97,10.0,North,4.6,-,N/A,,Clear,360,2012-10-02 23:55:00
7:15 PM,71.6,51.8,50,29.97,10.0,Calm,Calm,-,N/A,,Clear,0,2012-10-03 00:15:00
7:35 PM,69.8,51.8,53,29.97,10.0,Calm,Calm,-,N/A,,Clear,0,2012-10-03 00:35:00
7:55 PM,69.8,50.0,49,29.98,10.0,Calm,Calm,-,N/A,,Clear,0,2012-10-03 00:55:00
8:15 PM,66.2,53.6,64,29.98,10.0,Calm,Calm,-,N/A,,Clear,0,2012-10-03 01:15:00
8:35 PM,66.2,51.8,60,29.99,10.0,Calm,Calm,-,N/A,,Clear,0,2012-10-03 01:35:00
8:55 PM,64.4,53.6,68,29.99,10.0,Calm,Calm,-,N/A,,Clear,0,2012-10-03 01:55:00
9:15 PM,64.4,53.6,68,30.00,10.0,Calm,Calm,-,N/A,,Clear,0,2012-10-03 02:15:00
9:35 PM,62.6,53.6,72,30.00,10.0,Calm,Calm,-,N/A,,Clear,0,2012-10-03 02:35:00
9:55 PM,62.6,53.6,72,30.00,10.0,Calm,Calm,-,N/A,,Clear,0,2012-10-03 02:55:00
10:15 PM,62.6,53.6,72,30.00,10.0,Calm,Calm,-,N/A,,Clear,0,2012-10-03 03:15:00
10:35 PM,62.6,53.6,72,30.01,10.0,Calm,Calm,-,N/A,,Clear,0,2012-10-03 03:35:00
10:55 PM,60.8,53.6,77,30.01,10.0,Calm,Calm,-,N/A,,Clear,0,2012-10-03 03:55:00
11:15 PM,60.8,53.6,77,30.01,10.0,Calm,Calm,-,N/A,,Clear,0,2012-10-03 04:15:00
11:35 PM,60.8,53.6,77,30.01,10.0,Calm,Calm,-,N/A,,Clear,0,2012-10-03 04:35:00
11:55 PM,59.0,53.6,82,30.01,10.0,Calm,Calm,-,N/A,,Clear,0,2012-10-03 04:55:00